Weather History for George, South Africa

Change the Weather History Date:

Monday, September 16, 2013

  Actual Average Record
Temperature  
Mean Temperature 57 °F -  
Max Temperature 70 °F 66 °F 91 °F (2012)
Min Temperature 44 °F 49 °F 44 °F (2000)
Degree Days  
Heating Degree Days 8    
Growing Degree Days 7 (Base 50)    
Moisture  
Dew Point 46 °F    
Average Humidity 66    
Maximum Humidity 87    
Minimum Humidity 37    
Precipitation  
Precipitation 0.00 in - - ()
Sea Level Pressure  
Sea Level Pressure 30.08 in    
Wind  
Wind Speed 4 mph ()    
Max Wind Speed 12 mph    
Max Gust Speed -    
Visibility 8.4 miles    
Events      
Averages and records for this station are not official NWS values.
T = Trace of Precipitation, MM = Missing Value Source: Averaged Metar Reports

Daily Weather History Graph

Daily Weather History Graph

Search for Another Location

Airport:

Trip Planner

Search our weather history database for the weather conditions in past years. The results will help you decide how hot, cold, wet, or windy it might be!

Date:

Astronomy

Sep. 16, 2013 Rise Set
Actual Time 6:28 AM SAST 6:22 PM SAST
Civil Twilight 6:03 AM SAST 6:47 PM SAST
Nautical Twilight 5:34 AM SAST 7:16 PM SAST
Astronomical Twilight 5:05 AM SAST 7:45 PM SAST
Moon 3:21 PM SAST (9/16) 4:03 AM SAST (9/16)
Length of Visible Light 12h 44m
Length of Day
11h 54m
Waxing Gibbous, 88% of the Moon is Illuminated
Sep 16
Waxing Gibbous
Sep 19
Full
Sep 27
Last Quarter
Oct 5
New
Oct 12
First Quarter

Hourly Weather History & Observations

Time (SAST) Temp. Windchill Dew Point Humidity Pressure Visibility Wind Dir Wind Speed Gust Speed Precip Events Conditions
1:00 AM 48.2 °F - 42.8 °F 82% 30.06 in - North 2.3 mph - N/A   Clear
2:00 AM 47 °F - 43 °F 82% 30.08 in 6 mi ENE 2.3 mph - -  
2:00 AM 48.2 °F - 44.6 °F 87% 30.06 in - NE 2.3 mph - N/A   Clear
4:00 AM 46.4 °F 44.3 °F 42.8 °F 87% 30.06 in 6.2 mi NNW 4.6 mph - N/A   Mostly Cloudy
5:00 AM 46.4 °F 44.3 °F 42.8 °F 87% 30.06 in - North 4.6 mph - N/A   Clear
6:00 AM 46.4 °F 45.2 °F 41.0 °F 81% 30.09 in - NNW 3.5 mph - N/A   Clear
7:00 AM 48.2 °F - 41.0 °F 76% 30.09 in - North 3.5 mph - N/A   Clear
8:00 AM 53 °F - 47 °F 75% 30.13 in 12 mi North 3.5 mph - -  
8:00 AM 53.6 °F - 48.2 °F 82% 30.12 in - North 3.5 mph - N/A   Clear
9:00 AM 59.0 °F - 44.6 °F 59% 30.12 in - WNW 5.8 mph - N/A   Clear
10:00 AM 62.6 °F - 44.6 °F 52% 30.15 in 6.2 mi West 10.4 mph - N/A   Partly Cloudy
11:00 AM 64 °F - 46 °F 41% 30.14 in 12 mi SW 11.5 mph - -   Scattered Clouds
11:00 AM 64.4 °F - 46.4 °F 52% 30.15 in 6.2 mi SW 11.5 mph - N/A   Partly Cloudy
12:00 PM 66.2 °F - 46.4 °F 49% 30.12 in 6.2 mi SSW 10.4 mph - N/A   Partly Cloudy
1:00 PM 66.2 °F - 46.4 °F 49% 30.09 in 6.2 mi SSE 6.9 mph - N/A   Partly Cloudy
2:00 PM 68 °F - 47 °F 37% 30.08 in 12 mi SE 8.1 mph - -   Scattered Clouds
2:00 PM 68.0 °F - 48.2 °F 49% 30.06 in 6.2 mi SE 8.1 mph - N/A   Partly Cloudy
3:00 PM 69.8 °F - 48.2 °F 46% 30.04 in 6.2 mi East 6.9 mph - N/A   Partly Cloudy
4:00 PM 69.8 °F - 48.2 °F 46% 30.01 in - East 6.9 mph - N/A   Clear
5:00 PM 67 °F - 49 °F 41% 30.03 in 12 mi East 6.9 mph - -   Scattered Clouds
5:00 PM 68.0 °F - 48.2 °F 49% 30.01 in - East 6.9 mph - N/A   Clear
6:00 PM 60.8 °F - 48.2 °F 63% 30.04 in - ESE 5.8 mph - N/A   Clear
7:00 PM 57.2 °F - 48.2 °F 72% 30.04 in - East 4.6 mph - N/A   Clear
8:00 PM 56 °F - 50 °F 74% 30.08 in 12 mi Calm Calm - -  
8:00 PM 55.4 °F - 50.0 °F 82% 30.06 in - Calm Calm - N/A   Clear
9:00 PM 51.8 °F - 46.4 °F 82% 30.06 in - WNW 3.5 mph - N/A   Clear
10:00 PM 53.6 °F - 46.4 °F 77% 30.06 in - NNE 4.6 mph - N/A   Clear
11:00 PM 55.4 °F - 48.2 °F 77% 30.06 in - NNW 4.6 mph - N/A   Clear